Lynchburg, VA

8:54 PM EST on November 16, 2019 (GMT -0500)
Lynchburg Regional-Glenn

Weather History for KLYH - September, 2019

Change the Weather History Date:

Sunday, September 15, 2019

  Actual Average Record
Temperature  
Mean Temperature 76 °F 67 °F  
Max Temperature 88 °F 79 °F 95 °F (1930)
Min Temperature 64 °F 56 °F 42 °F (1964)
Degree Days  
Heating Degree Days 0 1  
Month to date heating degree days 0 8  
Since 1 July heating degree days 0 11  
Cooling Degree Days 11 4  
Month to date cooling degree days 176 82  
Year to date cooling degree days 1391 980  
Growing Degree Days 26 (Base 50)    
Moisture  
Dew Point 65 °F    
Average Humidity 70    
Maximum Humidity 100    
Minimum Humidity 39    
Precipitation  
Precipitation 0.00 in 0.14 in 3.29 in (1989)
Month to date precipitation 0.06 1.98  
Year to date precipitation 27.64 29.91  
Snow  
Snow 0.00 in - - ()
Month to date snowfall 0.0  
Since 1 July snowfall 0.0  
Since 1 September snowfall 0.0  
Snow Depth 0.00 in    
Sea Level Pressure  
Sea Level Pressure 30.17 in    
Wind  
Wind Speed 3 mph (NNE)    
Max Wind Speed 13 mph    
Max Gust Speed 15 mph    
Visibility 6 miles    
Events Fog    
T = Trace of Precipitation, MM = Missing Value Source: NWS Daily Summary

Daily Weather History Graph

Daily Weather History Graph

Search for Another Location

Airport or City:

Astronomy

Sep. 15, 2019 Rise Set
Actual Time 6:58 AM EDT 7:24 PM EDT
Civil Twilight 6:32 AM EDT 7:50 PM EDT
Nautical Twilight 6:01 AM EDT 8:21 PM EDT
Astronomical Twilight 5:30 AM EDT 8:52 PM EDT
Moon 8:32 PM EDT (9/15) 8:06 AM EDT (9/15)
Length of Visible Light 13h 18m
Length of Day
12h 26m
Full, 98% of the Moon is Illuminated
Sep 15
Full
Sep 21
Last Quarter
Sep 28
New
Oct 5
First Quarter
Oct 13
Full

Hourly Weather History & Observations

Time (EDT) Temp. Heat Index Dew Point Humidity Pressure Visibility Wind Dir Wind Speed Gust Speed Precip Events Conditions
12:54 AM 68.0 °F - 68.0 °F 100% 30.17 in 8.0 mi Calm Calm - N/A   Clear
1:54 AM 68.0 °F - 66.9 °F 96% 30.17 in 5.0 mi Calm Calm - N/A   Clear
2:54 AM 66.9 °F - 66.9 °F 100% 30.17 in 2.5 mi Calm Calm - N/A   Clear
3:13 AM 66.9 °F - 66.9 °F 100% 30.19 in 5.0 mi Calm Calm - N/A   Clear
3:47 AM 66.0 °F - 66.0 °F 100% 30.18 in 2.5 mi Calm Calm - N/A   Clear
3:52 AM 66.2 °F - 66.2 °F 100% 30.18 in 1.2 mi Calm Calm - N/A   Clear
3:54 AM 66.0 °F - 66.0 °F 100% 30.15 in 1.0 mi Calm Calm - N/A   Clear
4:02 AM 64.9 °F - 64.9 °F 100% 30.18 in 2.0 mi Calm Calm - N/A   Clear
4:10 AM 66.0 °F - 66.0 °F 100% 30.18 in 1.5 mi Calm Calm - N/A   Partly Cloudy
4:20 AM 66.0 °F - 66.0 °F 100% 30.18 in 3.0 mi Calm Calm - N/A   Clear
4:38 AM 66.0 °F - 66.0 °F 100% 30.18 in 1.5 mi Calm Calm - N/A   Clear
4:45 AM 64.9 °F - 64.9 °F 100% 30.18 in 1.2 mi Calm Calm - N/A   Clear
4:49 AM 64.4 °F - 64.4 °F 100% 30.18 in 2.0 mi Calm Calm - N/A   Clear
4:54 AM 66.0 °F - 64.9 °F 96% 30.16 in 5.0 mi Calm Calm - N/A   Clear
5:21 AM 64.9 °F - 64.9 °F 100% 30.18 in 1.8 mi Calm Calm - N/A   Clear
5:30 AM 64.9 °F - 64.9 °F 100% 30.18 in 1.2 mi Calm Calm - N/A   Partly Cloudy
5:47 AM 64.9 °F - 64.0 °F 97% 30.18 in 6.0 mi Calm Calm - N/A   Partly Cloudy
5:54 AM 64.0 °F - 64.0 °F 100% 30.16 in 5.0 mi Calm Calm - N/A   Partly Cloudy
6:29 AM 64.9 °F - 64.9 °F 100% 30.19 in 1.8 mi Calm Calm - N/A   Clear
6:37 AM 64.9 °F - 64.0 °F 97% 30.19 in 1.0 mi Calm Calm - N/A   Clear
6:41 AM 64.9 °F - 64.0 °F 97% 30.19 in 2.5 mi Calm Calm - N/A   Clear
6:54 AM 64.0 °F - 64.0 °F 100% 30.17 in 2.5 mi Calm Calm - N/A   Partly Cloudy
7:12 AM 66.2 °F - 64.4 °F 94% 30.19 in 3.0 mi Calm Calm - N/A   Mostly Cloudy
7:16 AM 66.9 °F - 66.0 °F 97% 30.19 in 1.5 mi Calm Calm - N/A   Mostly Cloudy
7:18 AM 66.0 °F - 66.0 °F 100% 30.19 in 1.0 mi Calm Calm - N/A   Mostly Cloudy
7:23 AM 66.9 °F - 66.9 °F 100% 30.19 in 0.2 mi Calm Calm - N/A Fog Fog
7:34 AM 66.9 °F - 66.9 °F 100% 30.19 in 0.5 mi Calm Calm - N/A Fog Fog
7:42 AM 68.0 °F - 66.9 °F 96% 30.20 in 1.0 mi North 3.5 mph - N/A   Mostly Cloudy
7:45 AM 68.0 °F - 68.0 °F 100% 30.20 in 2.0 mi North - - N/A   Scattered Clouds
7:52 AM 69.8 °F - 68.0 °F 94% 30.20 in 4.0 mi North 3.5 mph - N/A   Partly Cloudy
7:54 AM 69.1 °F - 68.0 °F 96% 30.17 in 4.0 mi North 3.5 mph - N/A   Partly Cloudy
8:54 AM 72.0 °F - 69.1 °F 91% 30.18 in 10.0 mi North 4.6 mph - N/A   Mostly Cloudy
9:06 AM 72.0 °F - 69.1 °F 91% 30.21 in 10.0 mi North 4.6 mph - N/A   Mostly Cloudy
9:54 AM 75.0 °F - 69.1 °F 82% 30.19 in 10.0 mi NNE 10.4 mph - N/A   Mostly Cloudy
10:54 AM 77.0 °F - 68.0 °F 74% 30.19 in 10.0 mi North 11.5 mph - N/A   Mostly Cloudy
11:14 AM 77.0 °F - 66.9 °F 71% 30.22 in 10.0 mi NNE 8.1 mph - N/A   Mostly Cloudy
11:54 AM 80.1 °F 82.1 °F 66.0 °F 62% 30.19 in 10.0 mi NNE 6.9 mph - N/A   Scattered Clouds
12:54 PM 81.0 °F 83.0 °F 66.0 °F 60% 30.17 in 10.0 mi North 3.5 mph - N/A   Mostly Cloudy
1:02 PM 81.0 °F 83.3 °F 66.9 °F 62% 30.20 in 10.0 mi Variable 4.6 mph - N/A   Overcast
1:54 PM 81.0 °F 82.7 °F 64.9 °F 58% 30.15 in 10.0 mi Calm Calm - N/A   Scattered Clouds
2:54 PM 84.0 °F 85.4 °F 64.0 °F 51% 30.12 in 10.0 mi NE 5.8 mph - N/A   Scattered Clouds
3:54 PM 87.1 °F 87.5 °F 62.1 °F 43% 30.12 in 10.0 mi North 5.8 mph - N/A   Mostly Cloudy
4:54 PM 87.1 °F 86.5 °F 59.0 °F 39% 30.09 in 10.0 mi NNE 8.1 mph - N/A   Partly Cloudy
5:54 PM 84.9 °F 84.4 °F 59.0 °F 41% 30.09 in 10.0 mi NE 5.8 mph - N/A   Clear
6:54 PM 81.0 °F 81.9 °F 62.1 °F 52% 30.09 in 10.0 mi East 4.6 mph - N/A   Clear
7:54 PM 72.0 °F - 64.0 °F 76% 30.09 in 10.0 mi Calm Calm - N/A   Clear
8:54 PM 69.1 °F - 64.0 °F 84% 30.11 in 10.0 mi Calm Calm - N/A   Clear
9:54 PM 66.9 °F - 63.0 °F 87% 30.12 in 10.0 mi Calm Calm - N/A   Clear
10:54 PM 68.0 °F - 64.9 °F 90% 30.12 in 10.0 mi Calm Calm - N/A   Clear